PTD-R (TYVAK-0127) (60523 NORAD) Tracking and Keplerian Element Data

This shows tracking and keplerian element data for the satellite.

Feedback or suggestion? Click here.




ElementValue
Catalog60523
NamePTD-R (TYVAK-0127)
Epoch Orbit865
Epoch Day286.76478227
Epoch Year2024
RAAN1.5578
Inclination97.4331
Eccentricity0.0006679
Argument of Perigee301.9712
Mean Anonmoly58.0874
Mean Motion15.22338527
Decay Rate0.00034412
L11 60523U 24149BH 24286.76478227 .00034412 00000+0 14888-2 0 9995
L22 60523 97.4331 1.5578 0006679 301.9712 58.0874 15.22338527 8651



Live tracking and technical data element details for PTD-R (TYVAK-0127) (NORAD 60523). PTD-R (TYVAK-0127) can be tracked NOW for your location showing map with azimuth and elevation plus other details from your city location.







IsCatalogInMostPopularTable: catalog: 60523, numindb: 5
Update: records affected: 1



GetName: 60523 PTD-R (TYVAK-0127)

Hit Count: updated at: Wed, 04 Dec 2024 19:20:31 GMT